{"data":{"norad_id":58745,"intl_designator":"2024-005T","name":"STARLINK-31176","alt_names":[],"object_type":"PAYLOAD","status":"ACTIVE","operator":null,"country":"US","launch_date":"2024-01-07","launch_site_code":"AFETR","launch_vehicle":null,"mission":null,"orbit_class":"UNKNOWN","rcs_meters":null,"size_class":null,"mass_kg":null,"dimensions":null,"purposes":["comms"],"wikipedia_slug":null,"has_3d_model":false,"image_url":null,"decayed_at":null,"tle_current":{"epoch":"2026-05-25T00:01:26.941728Z","epoch_age_seconds":68118,"freshness":"FRESH","line1":"1 58745U 24005T   26145.00100627  .00003360  00000+0  13157-3 0  9995","line2":"2 58745  43.0046 148.8684 0001694 283.3658  76.7004 15.27577689132155","mean_motion":15.27577689,"eccentricity":0.0001694,"inclination_deg":43.0046,"raan_deg":148.8684,"arg_perigee_deg":283.3658,"mean_anomaly_deg":76.7004,"bstar":0.00013157,"rev_number":13215,"period_min":94.266891325355,"perigee_km":481.89372991684,"apogee_km":484.21830211067,"semimajor_km":6861.1930160138,"source":"CELESTRAK","updated_at":"2026-05-25T13:38:18.739762Z"}}}